Location: Asheville, NC
(35.6000°N, 82.5500°W)
Time: 06:24:04
(UTC-05:00)

XW-2F - Pass Details

Date: 04 January 2018
Orbit: 507 x 528 km, 97.5° (Epoch: 19 January)

Event Time Altitude Azimuth Distance (km) Brightness Sun altitude
Rises 05:56:41 0° 26° (NNE) 2,645 ? -20.5°
Reaches altitude 10° 05:59:05 10° 40° (NE) 1,749 ? -20.0°
Maximum altitude 06:02:13 25° 96° (E) 1,077 ? -19.4°
Drops below altitude 10° 06:05:18 10° 153° (SSE) 1,727 ? -18.8°
Sets 06:07:39 0° 167° (SSE) 2,604 ? -18.3°
